OPS 4682 DEB, 19964

Orbit data source: Space-Track

OPS 4682 DEB, 19964 is space debris in LEO originally from a launch on Sat, 03 Apr 1965 UTC launched from the Air Force Western Test Range (AFWTR). Debris objects in space refer to the collection of defunct objects orbiting the Earth. Examples of debris include non-operational satellites, rocket bodies, and fragments generated from explosions, collisions, or faulty payload assembly.

Loading next visibility...
Identifier
19964, 1965-027BA
Orbit
LEO
Country
Flag of USUS
Related business
Manufacturer
Unknown
Mission
Spacecraft
Bus & Motor
Unknown
Mass
Unknown
Launch date (UTC)
1965-04-03 (61 years ago)
Launch vehicle
Unknown
Launch site
Air Force Western Test Range (AFWTR)
Object type
Payload
Rocket body
Debris
Shape & HBR
Unknown shape, 0.1 m
Radar Cross Section
Small (<0.1 m²)

Expand to show TLE details & history
Last TLE update: 1 day ago

TLE from 1 day ago
0 OPS 4682 DEB
1 19964U 65027BA  25300.99099899  .00000740  00000-0  25434-2 0  9992
2 19964  90.2615  11.5627 0019854  76.6854 103.8290 12.96889342521967
Epoch: 2025-10-27T23:47Z
TLE epoch observation values (Epoch: 2025-10-27T23:47:02.312Z)
Latitude
-0.85204°
Longitude
158.21429°
Altitude
1,280.953 km
Speed
7.214 km/s
True Right ascension
12h 46m 14s
True Declination
0° 50' 50"
Sunlit
Object was in daylight at epoch
Visualization orbit readout
Latitude
Unknown
Longitude
Unknown
Altitude
Unknown
Speed
Unknown
Apparent Right ascension
Unknown
Apparent Declination
Unknown
Sunlit
N/A
Visualization observer readout
Local Sidereal Time
21:11:48
Azimuth
Unknown
Elevation
Unknown
Doppler factor
Unknown
Orbital elements
Apogee altitude
1,286.618 km
Perigee altitude
1,256.243 km
Semi-major axis
7,649.567 km
Eccentricity
0.00199
Inclination
90.2615°
RAAN
11.5627°
Arg. of periapsis
76.6854°
True anomaly
104.04978°
Mean anomaly
103.829°
Eccentric anomaly
103.93941°
Mean motion
3.24405 °/min
Orbital period
110.97 mins
BSTAR
0.0025434
Loading maneuver chart data...
Computing Atmospheric mass density...
Loading historical data...
Loading historical data...
Loading historical data...
Loading historical data...
Loading historical data...
Loading historical data...
Loading historical data...

Documentation

Showing up to 5 results
|